Location: Prague
(50.0830°N, 14.4670°E)
Time: 05:58:53
(UTC+02:00)

DOVE 4 - Pass Details

Date: 06 April 2023
Orbit: 584 x 791 km, 97.8° (Epoch: 29 May)

Event Time Altitude Azimuth Distance (km) Brightness Sun altitude
Rises 23:02:42 0° 22° (NNE) 3,079 ? -27.5°
Reaches altitude 10° 23:05:21 10° 35° (NE) 2,118 ? -27.7°
Enters shadow 23:06:40 16° 47° (NE) 1,710 ? -27.8°
